Regional Weather Roundup
Issued by NWS

Home | Current Version | Previous Version | Graphics & Text | Print | Product List | Glossary On
Versions: 1 2 3 4 5 6 7 8 9 10 11 12 13 14 15 16 17 18 19 20 21 22 23 24 25 26 27 28 29 30 31 32 33 34 35 36 37 38 39 40 41 42 43 44 45 46 47 48 49 50
000
ASUS43 KLSX 271307
RWRMO

WEATHER SUMMARY FOR MISSOURI
NATIONAL WEATHER SERVICE SPRINGFIELD MO
800 AM CDT MON APR 27 2015

NOTE: "FAIR" INDICATES FEW OR NO CLOUDS BELOW 12,000 FEET WITH NO
       SIGNIFICANT WEATHER AND/OR OBSTRUCTIONS TO VISIBILITY.
       CURRENT SKY AND/OR WEATHER CONDITIONS ARE NOT AVAILABLE FOR
       CHILLICOTHE AND FARMINGTON.

MOZ001>031-035>038-043-044-053-054-271400-
...NORTHERN AND WESTERN MISSOURI...

CITY           SKY/WX    TMP DP  RH WIND       PRES   REMARKS
KANSAS CTY INT CLOUDY    43  38  82 N7        30.14R
KANSAS C DTWN  CLOUDY    47  38  71 N5        30.13R
LEE`S SUMMIT   CLOUDY    45  39  79 N3        30.13R
ST JOSEPH      CLOUDY    45  37  73 N8        30.16R
CHILLICOTHE      N/A     46  37  71 CALM      30.15R
KIRKSVILLE     SUNNY     48  40  73 NW5       30.13R

$$
MOZ066>068-077>081-088>096-101>105-271400-
...SOUTHWEST MISSOURI...

CITY           SKY/WX    TMP DP  RH WIND       PRES   REMARKS
SPRINGFIELD    CLOUDY    48  35  60 E9        30.05R
JOPLIN         CLOUDY    48  39  71 NE9       30.05R

$$
MOZ032>034-039>042-045>050-055>058-069>072-271400-
...CENTRAL MISSOURI...

CITY           SKY/WX    TMP DP  RH WIND       PRES   REMARKS
COLUMBIA       CLOUDY    47  40  76 N3        30.10R
JEFFERSON CITY CLOUDY    44  39  82 CALM      30.11R
ROLLA          CLOUDY    46  33  60 NE6       30.06R
SEDALIA        CLOUDY    46  38  73 N3        30.12R
WHITEMAN AFB   CLOUDY    44  39  82 N2        30.11R
WARRENSBURG    CLOUDY    43  37  81 CALM      30.13R
OSAGE BEACH    CLOUDY    43  37  81 N3        30.10R

$$
MOZ051-052-059>065-271400-
...EAST CENTRAL MISSOURI...

CITY           SKY/WX    TMP DP  RH WIND       PRES   REMARKS
ST LOUIS INTL  CLOUDY    48  33  56 NE8       30.08R
SPIRIT OF STL  CLOUDY    44  39  82 CALM      30.08R
ST CHARLES     CLOUDY    47  33  58 N10       30.08R

$$
MOZ072>076-082>087-097>100-106>115-271400-
...SOUTH CENTRAL AND SOUTHEAST MISSOURI...

CITY           SKY/WX    TMP DP  RH WIND       PRES   REMARKS
CAPE GIRARDEAU PTSUNNY   49  34  56 NE7       30.06R
FARMINGTON     CLOUDY    45  34  65 NE5       30.09R
POPLAR BLUFF   PTSUNNY   49  34  56 N6        30.06R
WEST PLAINS    CLOUDY    44  38  79 NE5       30.07R

$$


USA.gov is the U.S. government's official web portal to all federal, state and local government web resources and services.